This is the latest recevied weather packets stored in our database for station/object DD3UTS-13. If no packets are shown the sender has not sent any weather packets the latest 10 day(s).
| Time | Temp. | Humidity | Pressure | Rain* | Wind** | Luminosity | Snow |
|---|---|---|---|---|---|---|---|
| 1777624831 | 17.78° C | 42% | 1028.2 hPa | 0 mm | - | 510 W/m² | - |
| 1777624532 | 17.22° C | 42% | 1028.2 hPa | 0 mm | - | 511 W/m² | - |
| 1777624232 | 17.78° C | 42% | 1028.2 hPa | 0 mm | - | 508 W/m² | - |
| 1777623931 | 17.78° C | 43% | 1028.2 hPa | 0 mm | - | 507 W/m² | - |
| 1777623632 | 17.78° C | 42% | 1028.2 hPa | 0 mm | - | 502 W/m² | - |
| 1777623331 | 16.67° C | 43% | 1028.2 hPa | 0 mm | - | 498 W/m² | - |
| 1777623031 | 16.67° C | 42% | 1028.3 hPa | 0 mm | - | 493 W/m² | - |
| 1777622733 | 17.22° C | 43% | 1028.2 hPa | 0 mm | - | 490 W/m² | - |
| 1777622433 | 16.67° C | 44% | 1028.2 hPa | 0 mm | - | 485 W/m² | - |
| 1777622131 | 16.11° C | 43% | 1028.2 hPa | 0 mm | - | 483 W/m² | - |
| 1777621831 | 16.11° C | 44% | 1028.3 hPa | 0 mm | - | 479 W/m² | - |
| 1777621531 | 16.11° C | 43% | 1028.2 hPa | 0 mm | - | 475 W/m² | - |
| 1777621232 | 16.11° C | 44% | 1028.2 hPa | 0 mm | - | 510 W/m² | - |
| 1777620932 | 16.67° C | 44% | 1028.1 hPa | 0 mm | - | 466 W/m² | - |
| 1777620632 | 16.11° C | 44% | 1028.2 hPa | 0 mm | - | 462 W/m² | - |
| 1777620332 | 16.11° C | 45% | 1028.2 hPa | 0 mm | - | 459 W/m² | - |
| 1777620031 | 15.56° C | 46% | 1028.2 hPa | 0 mm | - | 451 W/m² | - |
| 1777619732 | 15.56° C | 46% | 1028.1 hPa | 0 mm | - | 446 W/m² | - |
| 1777619432 | 15° C | 47% | 1028.1 hPa | 0 mm | - | 441 W/m² | - |
| 1777619131 | 14.44° C | 49% | 1028.1 hPa | 0 mm | - | 430 W/m² | - |
| 1777618831 | 14.44° C | 49% | 1028.1 hPa | 0 mm | - | 426 W/m² | - |
| 1777618531 | 13.89° C | 51% | 1028 hPa | 0 mm | - | 414 W/m² | - |
| 1777618232 | 13.33° C | 50% | 1028 hPa | 0 mm | - | 408 W/m² | - |
| 1777617931 | 12.78° C | 51% | 1028 hPa | 0 mm | - | 392 W/m² | - |
| 1777617632 | 12.78° C | 51% | 1028 hPa | 0 mm | - | 388 W/m² | - |
* Rain latest 24 hours (hover to see other rain measurements)
** Current wind speed in m/s (hover to see current wind gust speed)